EHI
0 0 0 0 0 0 0 0 0 0 0 0 0 0 0 0 0 0 0 0 0 0 0 0 0 0 0 0 0 0 0 0 0 0 0 0 0 0 0 0 0 0 0
0 0 0 0 0 0 0 0 0 0 0 0 0 0 0 0 0 0 0 0 0 0 0 0 0 0 0 0 0 0 0 0 0 0 0 0 0 0 0 0 0 0 0
0 0 0 0 0 0 0 0 0 0 0 0 0 0 0 0 0 0 0 0 0 0 0 0 0 0 0 0 0 0 0 0 0 0 0 0 0 0 0 0 0 0 0
0 0 0 0 0 0 0 0 0 0 0 0 0 0 0 0 0 0 0 0 0 0 0 0 0 0 0 0 0 0 0 0 0 0 0 0 0 0 0 0 0 0 0
0 0 0 0 0 0 0 0 0 0 0 0 0 0 0 0 0 0 0 0 0 0 0 0 0 0 0 0 0 0 0 0 0 0 0 0 0 0 0 0 0 0 0
0 0 0 0 0 0 0 0 0 0 0 0 0 0 0 0 0 0 0 0 0 0 0 0 0 0 0 0 0 0 0 0 0 0 0 0 0 0 0 0 0 0 0
0 0 0 0 0 0 0 0 0 0 0 0 0 0 0 0 0 0 0 0 0 0 0 0 0 0 0 0 0 0 0 0 0 0 0 0 0 0 0 0 0 0 0
0 0 0 0 0 0 0 0 0 0 0 0 0 0 0 0 0 0 0 0 0 0 0 0 0 0 0 0 0 0 0 0 0 0 0 0 0 0 0 0 0 0 0
0 0 0 0 0 0 0 0 0 0 0 0 0 0 0 0 0 0 0 0 0 0 0 0 0 0 0 0 0 0 0 0 0 0 0 0 0 0 0 0 0 0 0
0 0 0 0 0 0 0 0 0 0 0 0 0 0 0 0 0 0 0 0 0 0 0 0 0 0 0 0 0 0 0 0 0 0 0 0 0 0 0 0 0 0 0
0 0 0 0 0 0 0 0 0 0 0 0 0 0 0 0 0 0 0 0 0 0 0 0 0 0 0 0 0 0 0 0 0 0 0 0 0 0 0 0 0 0 0
0 0 0 0 0 0 0 0 0 0 0 0 0 0 0 0 0 0 0 0 0 0 0 0 0 0 0 0 0 0 0 0 0 0 0 0 0 0 0 0 0 0 0
0 0 0 0 0 0 0 0 0 0 0 0 0 0 0 0 0 0 0 0 0 0 0 0 0 0 0 0 0 0 0 0 0 0 0 0 0 0 0 0 0 0 0
0 0 0 0 0 0 0 0 0 0 0 0 0 0 0 0 0 0 0 0 0 0 0 0 0 0 0 0 0 0 0 0 0 0 0 0 0 0 0 0 0 0 0
0 0 0 0 0 0 0 0 0 0 0 0 0 0 0 0 0 0 0 0 0 0 0 0 0 0 0 0 0 0 0 0 0 0 0 0 0 0 0 0 0 0 0
0 0 0 0 0 0 0 0 0 0 0 0 0 0 0 0 0 0 0 0 0 0 0 0 0 0 0 0 0 0 0 0 0 0 0 0 0 0 0 0 0 0 0
0 0 0 0 0 0 0 0 0 0 0 0 0 0 0 0 0 0 0 0 0 0 0 0 0 0 0 0 0 0 0 0 0 0 0 0 0 0 0 0 0 0 0
0 0 0 0 0 0 0 0 0 0 0 0 0 0 0 0 0 0 0 0 0 0 0 0 0 0 0 0 0 0 0 0 0 0 0 0 0 0 0 0 0 0 0
0 0 0 0 0 0 0 0 0 0 0 0 0 0 0 0 0 0 0 0 0 0 0 0 0 0 0 0 0 0 0 0 0 0 0 0 0 0 0 0 0 0 0
0 0 0 0 0 0 0 0 0 0 0 0 0 0 0 0 0 0 0 0 0 0 0 0 0 0 0 0 0 0 0 0 0 0 0 0 0 0 0 0 0 0 0
0 0 0 0 0 0 0 0 0 0 0 0 0 0 0 0 0 0 0 0 0 0 0 0 0 0 0 0 0 0 0 0 0 0 0 0 0 0 0 0 0 0 0
0 0 0 0 0 0 0 0 0 0 0 0 0 0 0 0 0 0 0 0 0 0 0 0 0 0 0 0 0 0 0 0 0 0 0 0 0 0 0 0 0 0 0
0 0 0 0 0 0 0 0 0 0 0 0 0 0 0 0 0 0 0 0 0 0 0 0 0 0 0 0 0 0 0 0 0 0 0 0 0 0 0 0 0 0 0
0 0 0 0 0 0 0 0 0 0 0 0 0 0 0 0 0 0 0 0 0 0 0 0 0 0 0 0 0 0 0 0 0 0 0 0 0 0 0 0 0 0 0
0 0 0 0 0 0 0 0 0 0 0 0 0 0 0 0 0 0 0 0 0 0 0 0 0 0 0 0 0 0 0 0 0 0 0 0 0 0 0 0 0 0 0
0 0 0 0 0 0 0 0 0 0 0 0 0 0 0 0 0 0 0 0 0 0 0 0 0 0 0 0 0 0 0 0 0 0 0 0 0 0 0 0 0 0 0
Wind_Speed
3 3 3 3 4 4 4 4 4 4 4 4 4 4 3 3 3 3 3 3 3 3 2 3 3 2 2 2 2 2 2 2 4 4 3 3 3 4 5 4 4 3 4
3 3 3 3 3 3 3 3 4 4 4 4 4 4 4 4 3 4 4 3 4 4 4 3 4 3 3 2 2 3 3 3 3 5 4 3 4 4 4 4 4 4 4
3 3 3 3 3 3 3 3 3 3 3 3 4 4 4 4 4 4 4 4 4 5 4 5 5 4 4 3 3 3 3 3 3 4 5 3 3 3 3 4 4 3 4
2 3 3 3 3 3 2 3 3 3 3 3 4 4 4 4 4 4 4 4 4 4 5 5 5 5 5 5 4 4 4 3 3 4 5 4 3 3 2 3 4 3 4
2 2 2 2 2 2 2 2 3 3 3 3 3 3 3 3 4 5 5 5 5 5 4 5 5 7 8 7 5 5 4 4 4 4 4 4 4 3 3 2 4 4 4
2 2 1 1 2 2 2 2 2 2 2 3 3 3 4 4 6 8 6 5 5 5 5 4 5 6 8 9 10 9 8 6 5 5 5 5 5 4 3 4 3 3 4
1 1 1 1 1 2 2 2 2 3 2 3 3 4 4 5 8 8 8 4 4 4 5 4 4 5 6 5 7 9 9 10 10 7 6 6 5 5 4 5 4 4 5
0 0 1 1 1 1 2 2 2 2 2 3 3 3 4 5 8 8 7 3 3 4 5 5 5 5 5 5 5 4 5 5 7 6 6 6 5 4 4 4 4 4 4
1 1 1 1 2 2 2 2 2 2 2 3 3 3 3 5 7 7 5 2 3 4 4 4 5 4 8 8 5 4 4 5 7 9 9 8 8 8 6 2 2 3 4
2 2 2 2 2 3 3 3 2 2 2 2 2 2 3 4 7 6 5 2 3 3 3 4 6 7 8 8 5 4 5 5 4 4 5 5 5 5 7 4 3 3 3
3 2 2 2 3 3 3 2 2 2 2 2 2 3 3 4 6 6 6 3 3 3 3 3 4 8 9 8 6 4 6 5 3 3 3 3 2 2 3 3 3 4 4
3 2 2 2 2 2 2 2 2 3 2 2 2 3 3 4 5 6 6 5 5 4 4 3 4 7 7 7 5 5 7 5 2 2 2 2 2 2 2 2 3 3 4
3 3 3 3 2 2 2 2 2 3 3 3 3 3 3 3 4 6 6 6 6 4 3 5 5 6 5 4 5 6 4 2 1 2 2 2 2 2 2 2 2 3 3
3 3 3 2 2 2 2 2 3 3 3 3 3 3 3 3 3 3 3 3 4 4 3 4 5 5 4 4 4 3 2 2 2 2 2 2 1 1 2 2 2 2 3
3 3 3 2 2 2 2 3 3 4 5 4 4 4 4 4 5 6 4 3 3 3 2 1 1 1 1 1 1 1 1 2 2 1 2 1 2 2 2 2 2 2 3
3 3 2 2 2 2 2 3 5 5 7 7 7 5 5 6 7 6 6 6 5 4 3 2 2 2 2 2 2 2 2 2 2 2 2 2 2 2 2 2 2 3 3
3 3 3 2 2 2 3 2 3 4 6 7 7 8 7 7 7 6 6 5 5 4 2 2 2 3 3 3 3 3 3 2 2 2 2 2 2 2 2 3 3 3 3
4 4 4 3 3 3 3 3 3 3 3 4 5 7 7 7 6 6 5 4 3 3 2 2 3 3 3 3 3 3 3 2 2 2 2 2 2 3 3 3 3 3 4
4 3 3 3 3 3 3 3 3 4 3 3 3 4 6 6 6 6 4 3 3 3 3 3 3 3 3 3 3 3 3 3 3 2 3 3 3 3 3 4 4 6 5
4 6 5 3 3 3 3 3 3 3 3 3 3 3 3 3 3 3 3 2 3 3 3 3 3 3 3 3 3 3 3 3 3 3 3 3 3 4 4 5 4 4 4
3 4 6 4 3 3 3 3 3 3 3 4 4 5 6 3 3 3 3 3 3 4 4 4 3 3 3 3 3 4 4 4 4 4 4 4 4 4 4 4 4 4 4
3 3 3 3 3 3 3 3 3 3 4 4 4 4 7 3 3 3 3 4 4 4 4 4 4 4 4 4 4 4 5 5 4 4 4 4 4 4 4 4 4 4 4
3 3 3 3 3 5 4 3 3 3 3 3 3 3 3 3 3 3 4 3 3 3 3 3 4 4 4 4 4 5 6 6 5 5 5 5 5 5 4 5 5 5 5
3 3 3 3 3 3 3 3 3 3 3 3 3 3 3 3 3 3 3 3 3 3 3 4 4 6 7 5 5 5 5 6 5 6 7 6 6 5 5 5 5 6 6
2 2 3 3 3 3 3 3 3 3 3 3 3 3 2 3 3 3 3 3 3 3 4 4 4 5 7 8 7 6 9 12 11 7 6 6 6 6 6 6 5 5 5
2 2 3 3 3 3 3 3 3 3 3 3 3 3 3 3 3 3 3 3 3 3 4 4 5 6 7 6 8 10 12 13 13 13 7 5 6 6 5 5 6 6 6
Wind_Direction
178 175 173 178 180 177 182 185 184 183 181 184 192 190 190 192 189 183 194 194 197 209 218 215 226 223 223 225 223 226 229 218 252 276 271 274 278 282 293 289 283 283 290
177 164 170 171 173 181 192 189 180 182 187 189 191 194 198 199 197 193 201 205 204 212 218 222 233 236 234 230 226 230 234 228 234 265 279 274 268 268 274 279 288 290 283
164 161 160 161 170 186 193 185 178 180 184 187 192 198 202 202 204 207 204 210 215 219 219 221 229 226 235 233 229 233 238 245 233 246 270 272 269 270 275 284 285 283 289
159 162 171 177 179 182 181 179 180 179 182 191 200 203 205 210 215 216 215 216 218 227 230 229 228 226 230 229 234 232 232 239 236 242 261 270 272 267 256 274 292 288 291
159 169 185 183 177 173 176 180 182 189 195 197 200 207 213 217 219 216 215 215 214 222 230 234 237 238 238 237 237 230 223 227 234 241 252 265 267 265 259 262 276 290 288
171 185 180 171 179 193 198 187 182 191 199 199 206 209 215 230 237 233 226 215 213 218 227 236 243 248 250 253 254 251 242 232 231 236 249 248 257 254 255 257 264 279 286
176 176 173 177 195 209 211 197 197 200 199 208 213 212 220 231 241 238 236 217 203 213 221 228 241 249 258 250 254 259 259 257 251 246 243 246 249 244 242 252 256 263 267
268 223 208 195 214 218 210 215 217 208 205 213 224 227 233 242 245 243 241 215 209 219 226 226 231 239 247 249 246 249 253 259 257 253 243 244 245 244 236 241 250 267 272
323 291 266 231 221 221 227 230 222 216 218 219 226 225 233 250 253 246 239 201 216 227 233 233 231 232 246 254 248 240 255 264 269 262 256 251 254 256 251 238 244 256 273
302 285 268 246 228 227 230 231 228 223 224 236 248 237 239 246 252 244 238 216 222 229 235 238 244 247 251 253 235 223 243 257 259 265 267 268 263 259 263 247 235 243 264
302 301 288 262 246 232 225 225 221 225 226 225 242 252 246 250 254 247 241 224 218 223 234 238 243 253 258 259 252 230 244 252 241 245 250 254 252 246 252 249 241 240 250
306 303 291 273 260 249 217 222 216 209 213 222 229 247 251 255 258 252 246 244 239 226 233 238 244 255 263 267 262 254 261 267 240 229 234 243 247 253 257 257 256 257 256
308 298 290 285 274 261 225 215 212 209 214 225 227 238 250 256 258 260 256 251 250 243 235 244 253 259 267 269 270 272 269 252 226 236 241 249 248 248 252 268 275 275 278
304 298 290 281 276 263 250 228 220 220 220 225 229 234 245 249 246 242 246 250 249 253 249 247 253 259 264 272 272 274 261 235 228 233 240 249 254 246 250 258 272 286 289
298 294 292 282 268 263 258 240 238 228 224 226 225 225 226 236 242 244 239 237 233 231 219 201 219 236 238 248 268 277 259 251 251 236 237 244 251 259 266 265 260 265 265
296 297 288 281 273 273 273 277 263 258 255 253 252 249 249 254 258 251 251 253 251 242 218 206 219 221 228 236 245 259 265 253 243 241 238 236 245 255 265 272 269 262 264
279 283 282 278 271 270 266 265 276 277 266 264 263 263 260 261 258 253 249 243 242 233 215 210 221 224 228 232 234 236 245 253 248 233 236 236 241 249 255 262 266 267 269
286 281 281 270 263 258 259 258 257 262 269 270 270 268 266 264 262 258 250 240 232 228 219 220 226 232 233 231 233 239 246 249 247 242 239 236 235 240 247 254 255 257 267
294 284 275 268 263 258 258 257 254 256 259 269 278 275 270 267 261 255 247 229 225 230 232 233 230 229 234 234 235 236 239 240 242 240 241 237 236 236 245 250 254 265 271
296 298 302 282 269 265 260 256 255 254 255 257 260 266 270 268 258 254 248 238 228 231 233 235 236 233 232 232 232 234 237 240 240 241 243 243 240 236 242 248 251 256 260
298 300 309 307 290 279 269 260 256 254 254 257 260 262 263 250 247 248 249 248 237 233 232 235 235 233 232 229 228 231 233 238 237 238 242 245 244 243 245 247 251 254 260
297 299 299 293 291 286 276 262 254 253 255 259 266 269 271 267 249 246 245 247 242 235 230 230 233 232 228 226 225 228 233 236 236 234 239 242 244 246 246 248 251 252 254
296 298 298 297 295 296 302 286 268 261 259 258 262 265 267 263 256 252 253 250 244 240 233 229 233 238 237 232 227 223 227 232 231 228 233 239 242 242 243 246 247 250 252
297 296 298 299 300 296 291 288 282 274 267 263 262 260 259 256 258 260 257 255 251 246 240 235 235 238 240 241 239 235 235 238 233 229 228 233 238 241 241 242 246 247 251
303 301 300 297 296 294 294 292 291 292 289 283 278 275 274 271 267 266 264 261 259 257 256 252 244 240 241 243 245 245 249 254 254 243 227 228 231 234 236 240 243 247 251
310 302 298 297 295 295 294 293 291 292 291 293 293 288 280 273 272 271 268 265 266 267 267 264 254 251 250 249 248 251 257 259 258 256 244 226 224 230 232 238 238 242 247